Lid_Strength_Index
1 3 3 2 7 8 10 9 6 8 7 5 4 5 6 6 7 11 1 0 -0 -0 -1 -1 -1 -1 -1 -1 -2 -2 -2 -2 -2 -2 -2 -2 -2 -2 -2 -2 -2 -2 -2 -2 -2 -2 -2 -2 -2
2 3 3 4 9 11 10 7 8 7 6 5 5 5 6 7 4 4 3 0 -1 -1 -1 -1 -1 -2 -1 -1 -2 -2 -2 -2 -2 -2 -2 -2 -2 -2 -2 -2 -2 -2 -2 -2 -2 -2 -2 -2 -2
2 4 5 7 9 11 11 7 8 6 5 5 6 4 5 6 3 3 1 -0 -1 -1 -1 -1 -1 -1 -1 -1 -1 -2 -2 -2 -2 -2 -2 -2 -2 -2 -2 -2 -2 -2 -2 -2 -2 -2 -2 -2 -2
2 3 4 9 11 8 8 7 7 6 5 5 5 7 4 2 3 1 -0 -0 -0 -1 -1 -1 -1 -2 -1 -1 -1 -1 -2 -2 -2 -2 -2 -2 -2 -2 -2 -2 -2 -2 -2 -2 -2 -2 -2 -2 -2
2 3 8 10 9 8 7 6 6 6 6 5 5 6 6 3 1 0 0 -0 0 -0 -1 -1 -1 -1 -2 -1 -1 -1 -2 -2 -2 -2 -2 -2 -2 -2 -2 -2 -2 -2 -2 -2 -2 -2 -2 -2 -2
5 4 10 11 10 7 6 6 6 6 5 5 6 6 5 2 2 1 0 0 -0 -0 -1 -1 0 -1 -1 -1 -1 -2 -2 -2 -2 -2 -2 -2 -2 -2 -1 -1 -2 -2 -1 -2 -1 -2 -2 -2 -2
6 7 9 9 9 8 7 6 6 6 6 6 4 7 5 3 1 1 0 -0 -0 -1 -1 -1 -1 -1 -0 -1 -1 -1 -2 -2 -2 -2 -2 -2 -2 -2 -2 -2 -2 -2 -2 -2 -1 -1 -1 -1 -1
4 6 9 8 9 9 7 7 6 6 6 3 3 7 6 3 1 1 0 0 0 -0 -1 -1 -1 -1 -1 -1 0 -0 -1 -1 -1 -2 -1 -1 -2 -2 -2 -2 -2 -2 -2 -1 -1 -1 -1 -1 -1
3 8 10 9 9 8 7 8 6 5 5 4 4 4 3 2 1 2 2 1 1 0 -0 -1 -1 -1 -1 -1 -0 1 1 0 -0 -1 -0 0 -1 -1 -1 -1 -1 -2 -2 -1 -1 -1 -1 -2 -1
6 8 8 6 6 7 7 8 7 7 6 5 4 3 2 2 2 3 3 3 2 1 0 -0 -1 -1 -1 -1 -1 -1 -1 -1 -1 -1 -1 -1 -1 -1 -1 -0 -1 -1 -2 -2 -1 -1 -1 -0 -1
6 8 6 6 5 6 6 8 7 7 7 5 5 4 3 3 3 3 3 2 2 1 0 -0 -1 -1 -1 -1 -1 -1 -1 -1 -1 -1 -1 -1 -1 -1 -1 -1 -1 -1 -0 -1 -1 -1 -1 -1 -1
8 6 6 5 5 6 6 6 8 7 6 5 5 3 3 4 4 3 3 3 2 1 1 0 -0 -1 -1 -1 -1 -1 -1 -1 -1 -1 -1 -1 -0 -1 -1 -1 -1 -2 -1 -1 -1 -1 -1 -1 -1
8 6 5 5 5 5 5 7 6 7 6 5 5 4 3 4 3 2 2 2 2 2 1 0 -0 -0 -1 -1 -1 -1 -1 -1 -1 -1 -1 -1 -0 -0 -0 -1 -1 -1 -1 -1 -1 -1 -1 -1 -1
6 6 6 5 6 5 7 6 5 6 6 6 6 5 4 3 3 3 2 2 2 1 1 0 0 -0 -0 -0 -1 -1 -1 -1 -1 -1 -1 -1 -1 0 0 0 -0 -1 -1 -1 -1 -1 -1 -1 -1
6 8 7 6 6 6 5 8 7 6 4 6 5 5 5 4 2 3 2 2 2 1 1 1 0 -0 -0 -0 -1 -1 -1 -1 -1 -1 -1 -1 -1 0 1 1 0 0 -0 -1 -1 -1 -1 -1 -1
8 8 11 7 6 6 6 10 6 5 5 5 5 4 4 4 3 2 2 2 1 1 1 0 0 -0 -0 -0 -0 -1 -1 -1 -1 -1 -1 -1 -1 0 0 1 0 0 0 0 -0 -0 0 0 0
9 13 11 9 6 7 8 9 6 5 5 6 5 4 4 4 4 2 2 1 1 1 1 1 0 0 0 -0 -0 -1 -1 -1 -1 -1 -1 -1 -1 -0 -0 -0 -0 0 0 1 0 -0 0 1 1
12 12 10 10 8 8 9 9 6 5 5 5 5 5 4 4 4 3 2 1 1 1 1 1 0 0 0 -0 -0 -0 -0 -0 -1 -1 -1 -1 -1 -1 -1 -1 -1 -1 -0 0 0 0 -0 0 1
9 10 11 9 7 9 9 8 7 6 6 6 5 5 5 4 3 3 3 2 1 1 1 1 1 1 0 1 1 1 1 1 0 -1 -1 -1 -1 -0 -1 -0 -0 -1 0 0 0 0 1 1 0
10 11 11 9 8 9 9 9 7 7 7 5 5 5 6 5 4 2 3 3 2 2 1 1 1 1 1 1 1 1 1 0 0 -0 -0 -1 -1 -0 0 -0 -0 -0 0 0 0 1 1 1 1
11 11 11 11 9 8 9 10 8 7 7 6 5 5 4 5 5 4 4 4 3 2 2 1 1 1 1 0 0 0 0 0 1 1 0 -0 -1 -0 0 0 0 -0 -0 1 0 0 1 2 1
13 9 9 11 12 15 9 16 10 7 8 7 7 5 5 4 4 3 4 4 4 3 1 1 1 1 1 0 1 1 2 3 2 1 0 0 -0 -0 -0 0 0 0 0 0 0 0 1 1 2
12 8 10 10 12 13 12 16 11 8 9 8 7 6 5 4 4 3 3 4 4 3 2 2 1 1 1 1 1 1 2 1 1 1 1 1 0 -0 -0 -0 0 1 1 1 1 0 1 1 1
8 10 10 11 13 19 13 13 12 10 8 7 7 6 5 4 4 3 3 2 4 3 2 2 2 1 1 1 1 1 2 2 2 2 2 1 1 0 0 -0 0 0 1 1 1 1 1 1 1
10 13 18 20 20 18 11 13 12 8 7 7 7 6 5 5 4 4 4 3 3 3 2 2 3 3 1 1 1 1 1 1 2 2 2 1 1 1 1 1 1 1 1 1 1 1 1 1 1
13 12 16 21 19 16 12 15 11 7 6 6 6 6 6 5 4 5 5 5 4 4 3 3 4 3 2 1 1 1 1 1 1 1 1 1 1 1 0 0 0 0 1 0 0 1 1 1 2
13 15 10 15 15 16 13 11 8 7 7 7 7 7 6 6 6 6 5 5 5 5 5 4 3 3 2 2 1 1 1 1 1 1 1 1 1 1 0 0 0 0 0 0 0 1 1 2 1
10 9 15 15 20 19 14 13 12 9 8 7 7 7 7 6 6 6 6 5 5 5 5 5 5 4 2 2 1 1 1 1 1 1 1 1 1 0 1 1 0 0 0 0 0 1 1 2 2
12 13 11 11 13 17 17 14 8 8 7 7 6 5 5 5 5 6 6 5 4 4 5 6 6 5 4 2 1 1 1 1 1 1 1 1 1 1 1 1 1 1 1 1 1 1 2 2 2
9 11 11 15 17 15 16 14 7 6 7 6 6 6 6 5 5 4 4 3 4 5 5 5 6 6 5 4 3 2 1 1 1 1 1 1 1 1 1 1 1 2 1 1 1 2 2 2 3